| time (UTC) | temp C | wind direction | speed KPH | gust KPH | rain 1hr cm | rain 24hr cm | rain mn cm | humidity % | barometer mb |
| 20260505235356 | 19 | 247 | 0.0 | 0.0 | 0.00 | 0.00 | 0.00 | 31 | 1022.1 |
| 20260505234852 | 19 | 273 | 0.0 | 0.0 | 0.00 | 0.00 | 0.00 | 31 | 1022.1 |
| 20260505234346 | 19 | 193 | 0.0 | 0.0 | 0.00 | 0.00 | 0.00 | 31 | 1022.1 |
| 20260505234341 | 19 | 253 | 0.0 | 0.0 | 0.00 | 0.00 | 0.00 | 31 | 1022.1 |
| 20260505233336 | 19 | 258 | 0.0 | 0.0 | 0.00 | 0.00 | 0.00 | 31 | 1022.1 |
| 20260505232830 | 19 | 242 | 0.0 | 0.0 | 0.00 | 0.00 | 0.00 | 30 | 1022.1 |
| 20260505232325 | 20 | 349 | 0.0 | 0.0 | 0.00 | 0.00 | 0.00 | 30 | 1022.1 |
| 20260505231820 | 19 | 250 | 0.0 | 0.0 | 0.00 | 0.00 | 0.00 | 31 | 1022.1 |
| 20260505231314 | 19 | 287 | 0.0 | 0.0 | 0.00 | 0.00 | 0.00 | 29 | 1021.8 |
| 20260505230809 | 19 | 231 | 0.0 | 0.0 | 0.00 | 0.00 | 0.00 | 31 | 1022.1 |
| 20260505230305 | 19 | 172 | 0.0 | 0.0 | 0.00 | 0.00 | 0.00 | 31 | 1022.1 |
| 20260505230259 | 19 | 255 | 0.0 | 0.0 | 0.00 | 0.00 | 0.00 | 30 | 1022.1 |
| 20260505225253 | 19 | 245 | 0.0 | 0.0 | 0.00 | 0.00 | 0.00 | 29 | 1022.1 |
| 20260505224748 | 19 | 247 | 0.0 | 0.0 | 0.00 | 0.00 | 0.00 | 30 | 1022.4 |
| 20260505224243 | 19 | 239 | 0.0 | 0.0 | 0.00 | 0.00 | 0.00 | 31 | 1022.4 |
| 20260505223738 | 19 | 204 | 0.0 | 0.0 | 0.00 | 0.00 | 0.00 | 31 | 1022.1 |
| 20260505223233 | 19 | 223 | 0.0 | 0.0 | 0.00 | 0.00 | 0.00 | 31 | 1022.1 |
| 20260505222726 | 19 | 255 | 0.0 | 0.0 | 0.00 | 0.00 | 0.00 | 31 | 1022.4 |
| 20260505222221 | 19 | 336 | 0.0 | 0.0 | 0.00 | 0.00 | 0.00 | 31 | 1022.4 |
| 20260505221717 | 19 | 229 | 0.0 | 0.0 | 0.00 | 0.00 | 0.00 | 30 | 1022.4 |
| 20260505221209 | 19 | 251 | 0.0 | 0.0 | 0.00 | 0.00 | 0.00 | 31 | 1022.4 |
| 20260505220706 | 19 | 238 | 0.0 | 0.0 | 0.00 | 0.00 | 0.00 | 31 | 1022.4 |
| 20260505220701 | 19 | 246 | 0.0 | 0.0 | 0.00 | 0.00 | 0.00 | 31 | 1022.4 |
| 20260505215653 | 19 | 359 | 0.0 | 0.0 | 0.00 | 0.00 | 0.00 | 28 | 1022.4 |
| 20260505215148 | 19 | 234 | 0.0 | 0.0 | 0.00 | 0.00 | 0.00 | 28 | 1022.4 |
| 20260505215140 | 19 | 178 | 0.0 | 0.0 | 0.00 | 0.00 | 0.00 | 31 | 1022.4 |
| 20260505214745 | 19 | 253 | 0.0 | 0.0 | 0.00 | 0.00 | 0.00 | 30 | 1022.4 |
| 20260505213632 | 19 | 288 | 0.0 | 0.0 | 0.00 | 0.00 | 0.00 | 29 | 1022.8 |
| 20260505213129 | 19 | 281 | 0.0 | 0.0 | 0.00 | 0.00 | 0.00 | 31 | 1022.4 |
| 20260505212622 | 19 | 277 | 0.0 | 0.0 | 0.00 | 0.00 | 0.00 | 31 | 1022.4 |
| 20260505212116 | 19 | 16 | 0.0 | 0.0 | 0.00 | 0.00 | 0.00 | 31 | 1022.4 |
| 20260505211612 | 18 | 240 | 0.0 | 0.0 | 0.00 | 0.00 | 0.00 | 29 | 1022.4 |
| 20260505211106 | 18 | 208 | 0.0 | 0.0 | 0.00 | 0.00 | 0.00 | 27 | 1022.8 |
| 20260505210601 | 18 | 228 | 0.0 | 0.0 | 0.00 | 0.00 | 0.00 | 30 | 1022.8 |
| 20260505210057 | 18 | 197 | 0.0 | 0.0 | 0.00 | 0.00 | 0.00 | 31 | 1022.8 |
| 20260505205550 | 18 | 44 | 0.0 | 0.0 | 0.00 | 0.00 | 0.00 | 31 | 1022.8 |
| 20260505205045 | 18 | 258 | 0.0 | 0.0 | 0.00 | 0.00 | 0.00 | 32 | 1022.8 |
| 20260505204542 | 18 | 279 | 0.0 | 0.0 | 0.00 | 0.00 | 0.00 | 32 | 1022.8 |
| 20260505204536 | 18 | 192 | 0.0 | 0.0 | 0.00 | 0.00 | 0.00 | 32 | 1022.8 |
| 20260505203528 | 18 | 241 | 0.0 | 0.0 | 0.00 | 0.00 | 0.00 | 33 | 1023.1 |
| 20260505203025 | 18 | 268 | 0.0 | 0.0 | 0.00 | 0.00 | 0.00 | 32 | 1022.8 |
| 20260505202518 | 18 | 288 | 0.0 | 0.0 | 0.00 | 0.00 | 0.00 | 32 | 1022.8 |
| 20260505202511 | 18 | 21 | 0.0 | 0.0 | 0.00 | 0.00 | 0.00 | 32 | 1023.1 |
| 20260505202116 | 18 | 261 | 0.0 | 0.0 | 0.00 | 0.00 | 0.00 | 31 | 1023.1 |
| 20260505201003 | 18 | 275 | 0.0 | 0.0 | 0.00 | 0.00 | 0.00 | 32 | 1023.1 |
| 20260505200458 | 18 | 297 | 0.0 | 1.6 | 0.00 | 0.00 | 0.00 | 33 | 1022.8 |
| 20260505195953 | 18 | 9 | 0.0 | 1.6 | 0.00 | 0.00 | 0.00 | 30 | 1022.8 |
| 20260505195448 | 18 | 281 | 0.0 | 0.0 | 0.00 | 0.00 | 0.00 | 32 | 1022.8 |
| 20260505195439 | 18 | 242 | 0.0 | 0.0 | 0.00 | 0.00 | 0.00 | 29 | 1023.1 |
| 20260505195044 | 18 | 258 | 0.0 | 0.0 | 0.00 | 0.00 | 0.00 | 30 | 1022.8 |
| 20260505193931 | 18 | 265 | 0.0 | 0.0 | 0.00 | 0.00 | 0.00 | 27 | 1023.1 |
| 20260505193425 | 18 | 243 | 0.0 | 0.0 | 0.00 | 0.00 | 0.00 | 27 | 1023.1 |
| 20260505192921 | 17 | 23 | 0.0 | 0.0 | 0.00 | 0.00 | 0.00 | 26 | 1022.8 |
| 20260505192416 | 17 | 221 | 0.0 | 0.0 | 0.00 | 0.00 | 0.00 | 30 | 1023.1 |
| 20260505192411 | 16 | 255 | 0.0 | 1.6 | 0.00 | 0.00 | 0.00 | 30 | 1022.8 |
| 20260505191405 | 16 | 232 | 0.0 | 1.6 | 0.00 | 0.00 | 0.00 | 29 | 1022.8 |
| 20260505190858 | 16 | 232 | 0.0 | 0.0 | 0.00 | 0.00 | 0.00 | 33 | 1022.8 |
| 20260505190353 | 16 | 284 | 0.0 | 0.0 | 0.00 | 0.00 | 0.00 | 31 | 1022.8 |
| 20260505185849 | 16 | 224 | 0.0 | 0.0 | 0.00 | 0.00 | 0.00 | 32 | 1022.8 |
| 20260505185343 | 16 | 6 | 0.0 | 0.0 | 0.00 | 0.00 | 0.00 | 33 | 1022.8 |
| 20260505184837 | 16 | 245 | 0.0 | 0.0 | 0.00 | 0.00 | 0.00 | 32 | 1023.1 |
| 20260505184332 | 16 | 325 | 0.0 | 0.0 | 0.00 | 0.00 | 0.00 | 33 | 1022.8 |
| 20260505183826 | 16 | 255 | 0.0 | 0.0 | 0.00 | 0.00 | 0.00 | 34 | 1023.1 |
| 20260505183324 | 16 | 249 | 0.0 | 0.0 | 0.00 | 0.00 | 0.00 | 33 | 1022.8 |
| 20260505183318 | 16 | 282 | 0.0 | 0.0 | 0.00 | 0.00 | 0.00 | 33 | 1022.8 |
| 20260505182311 | 15 | 223 | 0.0 | 0.0 | 0.00 | 0.00 | 0.00 | 33 | 1022.8 |
| 20260505181805 | 15 | 327 | 0.0 | 1.6 | 0.00 | 0.00 | 0.00 | 34 | 1022.4 |
| 20260505181301 | 14 | 188 | 0.0 | 1.6 | 0.00 | 0.00 | 0.00 | 34 | 1022.8 |
| 20260505180755 | 14 | 272 | 0.0 | 0.0 | 0.00 | 0.00 | 0.00 | 36 | 1022.8 |
| 20260505180249 | 13 | 242 | 0.0 | 0.0 | 0.00 | 0.00 | 0.00 | 38 | 1022.4 |
| 20260505175745 | 13 | 230 | 0.0 | 0.0 | 0.00 | 0.00 | 0.00 | 42 | 1022.8 |
| 20260505175239 | 13 | 322 | 0.0 | 0.0 | 0.00 | 0.00 | 0.00 | 47 | 1023.1 |
| 20260505174734 | 13 | 275 | 0.0 | 3.2 | 0.00 | 0.00 | 0.00 | 51 | 1022.4 |
| 20260505174229 | 13 | 233 | 0.0 | 3.2 | 0.00 | 0.00 | 0.00 | 59 | 1022.8 |
| 20260505173723 | 13 | 182 | 0.0 | 0.0 | 0.00 | 0.00 | 0.00 | 73 | 1022.4 |
| 20260505173220 | 13 | 304 | 0.0 | 0.0 | 0.00 | 0.00 | 0.00 | 74 | 1022.4 |
| 20260505173214 | 13 | 331 | 0.0 | 0.0 | 0.00 | 0.00 | 0.00 | 77 | 1022.4 |
| 20260505172207 | 13 | 226 | 0.0 | 0.0 | 0.00 | 0.00 | 0.00 | 80 | 1022.4 |
| 20260505171705 | 13 | 306 | 0.0 | 0.0 | 0.00 | 0.00 | 0.00 | 80 | 1022.4 |
| 20260505171659 | 13 | 269 | 0.0 | 0.0 | 0.00 | 0.00 | 0.00 | 81 | 1022.4 |
| 20260505170652 | 13 | 18 | 0.0 | 0.0 | 0.00 | 0.00 | 0.00 | 82 | 1022.4 |
| 20260505170146 | 13 | 214 | 0.0 | 0.0 | 0.00 | 0.00 | 0.00 | 82 | 1022.4 |
| 20260505165643 | 12 | 222 | 0.0 | 0.0 | 0.00 | 0.00 | 0.00 | 82 | 1022.4 |
| 20260505165636 | 12 | 280 | 0.0 | 0.0 | 0.00 | 0.00 | 0.00 | 83 | 1022.4 |
| 20260505164633 | 12 | 251 | 0.0 | 0.0 | 0.00 | 0.00 | 0.00 | 83 | 1022.4 |
| 20260505164627 | 12 | 356 | 0.0 | 0.0 | 0.00 | 0.00 | 0.00 | 83 | 1022.4 |
| 20260505163620 | 12 | 266 | 0.0 | 0.0 | 0.00 | 0.00 | 0.00 | 83 | 1022.4 |
| 20260505163115 | 12 | 243 | 0.0 | 0.0 | 0.00 | 0.00 | 0.00 | 83 | 1022.4 |
| 20260505162611 | 12 | 316 | 0.0 | 0.0 | 0.00 | 0.00 | 0.00 | 83 | 1022.4 |
| 20260505162104 | 12 | 215 | 0.0 | 0.0 | 0.00 | 0.00 | 0.00 | 84 | 1022.4 |
| 20260505161558 | 12 | 251 | 0.0 | 0.0 | 0.00 | 0.00 | 0.00 | 84 | 1022.4 |
| 20260505161054 | 12 | 226 | 0.0 | 0.0 | 0.00 | 0.00 | 0.00 | 84 | 1022.4 |
| 20260505160548 | 12 | 228 | 0.0 | 0.0 | 0.00 | 0.00 | 0.00 | 84 | 1022.4 |
| 20260505153010 | 12 | 206 | 0.0 | 0.0 | 0.00 | 0.00 | 0.00 | 84 | 1022.1 |
| 20260505152507 | 12 | 231 | 0.0 | 0.0 | 0.00 | 0.00 | 0.00 | 84 | 1022.1 |
| 20260505152000 | 12 | 191 | 0.0 | 0.0 | 0.00 | 0.00 | 0.00 | 84 | 1022.1 |
| 20260505151456 | 12 | 237 | 0.0 | 0.0 | 0.00 | 0.00 | 0.00 | 84 | 1021.8 |
| 20260505151451 | 12 | 275 | 0.0 | 0.0 | 0.00 | 0.00 | 0.00 | 84 | 1021.8 |
| 20260505150444 | 12 | 272 | 0.0 | 0.0 | 0.00 | 0.00 | 0.00 | 84 | 1021.8 |
| 20260505140342 | 12 | 249 | 0.0 | 0.0 | 0.00 | 0.00 | 0.00 | 84 | 1021.1 |
| 20260505130238 | 12 | 234 | 0.0 | 0.0 | 0.00 | 0.00 | 0.00 | 83 | 1021.1 |
| 20260505124721 | 11 | 230 | 0.0 | 0.0 | 0.00 | 0.00 | 0.00 | 83 | 1020.7 |
| 20260505124714 | 11 | 204 | 0.0 | 0.0 | 0.00 | 0.00 | 0.00 | 83 | 1020.7 |
| 20260505124318 | 11 | 230 | 0.0 | 0.0 | 0.00 | 0.00 | 0.00 | 82 | 1020.7 |
| 20260505123206 | 11 | 198 | 0.0 | 0.0 | 0.00 | 0.00 | 0.00 | 83 | 1020.7 |
| 20260505122702 | 11 | 208 | 0.0 | 0.0 | 0.00 | 0.00 | 0.00 | 82 | 1021.1 |
| 20260505122656 | 11 | 202 | 0.0 | 0.0 | 0.00 | 0.00 | 0.00 | 83 | 1020.7 |
| 20260505121649 | 11 | 208 | 0.0 | 0.0 | 0.00 | 0.00 | 0.00 | 83 | 1021.1 |
| 20260505121144 | 11 | 199 | 0.0 | 0.0 | 0.00 | 0.00 | 0.00 | 83 | 1021.1 |
| 20260505120641 | 11 | 201 | 0.0 | 0.0 | 0.00 | 0.00 | 0.00 | 82 | 1021.1 |
| 20260505120134 | 11 | 223 | 0.0 | 0.0 | 0.00 | 0.00 | 0.00 | 82 | 1020.7 |
| 20260505115628 | 11 | 227 | 0.0 | 0.0 | 0.00 | 0.00 | 0.00 | 82 | 1021.1 |
| 20260505115124 | 11 | 219 | 0.0 | 0.0 | 0.00 | 0.00 | 0.00 | 82 | 1021.1 |
| 20260505115114 | 11 | 237 | 0.0 | 0.0 | 0.00 | 0.00 | 0.00 | 82 | 1021.4 |
| 20260505114720 | 11 | 236 | 0.0 | 0.0 | 0.00 | 0.00 | 0.00 | 82 | 1021.4 |
| 20260505113609 | 11 | 226 | 0.0 | 0.0 | 0.00 | 0.00 | 0.00 | 82 | 1021.1 |
| 20260505113102 | 11 | 226 | 0.0 | 0.0 | 0.00 | 0.00 | 0.00 | 82 | 1021.4 |
| 20260505112557 | 11 | 209 | 0.0 | 0.0 | 0.00 | 0.00 | 0.00 | 82 | 1021.4 |
| 20260505112053 | 11 | 226 | 0.0 | 0.0 | 0.00 | 0.00 | 0.00 | 82 | 1021.1 |
| 20260505111546 | 11 | 217 | 0.0 | 0.0 | 0.00 | 0.00 | 0.00 | 82 | 1021.4 |
| 20260505111041 | 11 | 213 | 0.0 | 0.0 | 0.00 | 0.00 | 0.00 | 82 | 1021.4 |
| 20260505110537 | 11 | 225 | 0.0 | 0.0 | 0.00 | 0.00 | 0.00 | 81 | 1021.4 |
| 20260505101955 | -17 | 0.0 | 0.0 | 0.00 | 0.00 | 0.00 | 1021.8 | ||
| 20260505101946 | 11 | 235 | 0.0 | 0.0 | 0.00 | 0.00 | 0.00 | 79 | 1021.4 |
| 20260505100941 | 11 | 235 | 0.0 | 0.0 | 0.00 | 0.00 | 0.00 | 79 | 1021.8 |
| 20260505100439 | 11 | 235 | 0.0 | 0.0 | 0.00 | 0.00 | 0.00 | 79 | 1021.4 |
| 20260505100432 | 11 | 235 | 0.0 | 0.0 | 0.00 | 0.00 | 0.00 | 79 | 1021.4 |
| 20260505095428 | 11 | 252 | 0.0 | 0.0 | 0.00 | 0.00 | 0.00 | 79 | 1021.4 |
| 20260505094924 | 11 | 211 | 0.0 | 0.0 | 0.00 | 0.00 | 0.00 | 79 | 1021.8 |
| 20260505094918 | 11 | 228 | 0.0 | 0.0 | 0.00 | 0.00 | 0.00 | 79 | 1021.4 |
| 20260505093911 | 11 | 203 | 0.0 | 0.0 | 0.00 | 0.00 | 0.00 | 79 | 1021.8 |
| 20260505093408 | 11 | 214 | 0.0 | 0.0 | 0.00 | 0.00 | 0.00 | 79 | 1021.8 |
| 20260505092900 | 11 | 227 | 0.0 | 0.0 | 0.00 | 0.00 | 0.00 | 79 | 1022.1 |
| 20260505092358 | 11 | 221 | 0.0 | 0.0 | 0.00 | 0.00 | 0.00 | 79 | 1021.8 |
| 20260505092353 | 11 | 226 | 0.0 | 0.0 | 0.00 | 0.00 | 0.00 | 79 | 1022.1 |
| 20260505092009 | 11 | 225 | 0.0 | 0.0 | 0.00 | 0.00 | 0.00 | 79 | 1021.8 |
| 20260505091345 | 11 | 264 | 0.0 | 0.0 | 0.00 | 0.00 | 0.00 | 79 | 1021.8 |
| 20260505091334 | 11 | 242 | 0.0 | 0.0 | 0.00 | 0.00 | 0.00 | 79 | 1022.1 |
| 20260505090439 | 11 | 246 | 0.0 | 0.0 | 0.00 | 0.00 | 0.00 | 79 | 1022.1 |
| 20260505085325 | 11 | 205 | 0.0 | 0.0 | 0.00 | 0.00 | 0.00 | 79 | 1021.8 |
| 20260505084820 | 11 | 184 | 0.0 | 0.0 | 0.00 | 0.00 | 0.00 | 79 | 1021.8 |
| 20260505084314 | 11 | 218 | 0.0 | 0.0 | 0.00 | 0.00 | 0.00 | 79 | 1021.8 |
| 20260505083808 | 11 | 233 | 0.0 | 0.0 | 0.00 | 0.00 | 0.00 | 79 | 1022.1 |
| 20260505083305 | 11 | 245 | 0.0 | 0.0 | 0.00 | 0.00 | 0.00 | 79 | 1021.8 |
| 20260505083258 | 11 | 234 | 0.0 | 0.0 | 0.00 | 0.00 | 0.00 | 78 | 1022.1 |
| 20260505082253 | 11 | 228 | 0.0 | 0.0 | 0.00 | 0.00 | 0.00 | 77 | 1022.4 |
| 20260505081748 | 11 | 230 | 0.0 | 0.0 | 0.00 | 0.00 | 0.00 | 77 | 1022.1 |
| 20260505081242 | 11 | 258 | 0.0 | 0.0 | 0.00 | 0.00 | 0.00 | 77 | 1022.4 |
| 20260505080736 | 11 | 218 | 0.0 | 0.0 | 0.00 | 0.00 | 0.00 | 76 | 1022.4 |
| 20260505080231 | -17 | 0.0 | 0.0 | 0.00 | 0.00 | 0.00 |